STARLINK-3130 (49437 NORAD) Tracking and Keplerian Element Data

This shows tracking and keplerian element data for the satellite.

Feedback or suggestion? Click here.




ElementValue
Catalog49437
NameSTARLINK-3130
Epoch Orbit370
Epoch Day15.91668981
Epoch Year2022
RAAN179.3512
Inclination53.2149
Eccentricity0.0003023
Argument of Perigee9.9152
Mean Anonmoly198.2123
Mean Motion15.73199218
Decay Rate-0.00049105
L11 49437U 21104AF 22015.91668981 -.00049105 00000+0 -34740-3 0 9994
L22 49437 53.2149 179.3512 0003023 9.9152 198.2123 15.73199218 3707

Live tracking and technical data element details for STARLINK-3130 (NORAD 49437). STARLINK-3130 can be tracked NOW for your location showing map with azimuth and elevation plus other details from your city location.

Track the satellite on the map from your city or location and see movement details for azimuth, elevation, latitude, longitude, range, height, and movement on the map or in text.







IsCatalogInMostPopularTable: catalog: 49437, numindb: 6
Update: records affected: 1



GetName: 49437 STARLINK-3130

Hit Count: updated at: Thu, 20 Jan 2022 17:57:24 GMT